[[{"header":{"parameterUnit":"m.s-1","parameterCategory":1,"la1":30.2991,"la2":30.254,"lo1":-89.0895,"lo2":-89.0444,"dy":0.0017,"dx":0.0017,"nx":28,"ny":28,"refTime":"2024-04-17T03:00:00:Z","depth":0,"parameterNumber":2,"parameterNumberName":"U-component_of_WINDS"},"data":[0,0,0,0,0,0,0,0,0,0,0,0,0,0,0,0,0,0,0,0,0,0,0,0,0,0,0,0,0,0,0,0,0,0,0,0,0,0,0,0,0,0,0,0,0,0,0,0,0,0,0,0,0,0,0,0,0,0,-2.0716,-2.0717,0,-2.0838,-2.0839,-2.0841,-2.0871,-2.087,-2.087,-2.0869,-2.0995,-2.0999,-2.1003,0,0,0,0,0,0,0,0,0,0,0,0,0,-2.0511,-2.0514,-2.0716,-2.0717,-2.0719,-2.0838,-2.084,-2.0841,-2.0871,-2.087,-2.0869,-2.0868,-2.0994,-2.0998,-2.1003,0,0,0,0,0,0,0,0,0,0,0,0,0,-2.0613,-2.0515,-2.0715,-2.0748,-2.0752,-2.0838,-2.084,-2.0842,-2.0871,-2.087,-2.0869,-2.0868,-2.0992,-2.0998,-2.1004,-2.1066,0,0,-2.1023,-2.1026,0,0,0,0,0,0,0,0,-2.0607,-2.062,-2.0742,-2.0746,-2.0751,-2.0838,-2.0813,-2.0917,-2.0872,-2.0826,-2.0869,-2.0867,-2.0944,-2.0954,-2.0979,-2.1072,-2.1077,-2.1023,-2.1027,-2.103,-2.1031,0,0,0,0,0,0,0,-2.06,-2.0615,-2.0764,-2.0744,-2.0749,-2.0757,-2.0771,-2.0833,-2.089,-2.083,-2.0833,-2.0847,-2.0946,-2.0973,-2.0983,-2.1079,-2.1023,-2.1029,-2.1032,-2.1035,-2.1229,-2.1231,0,0,0,0,0,0,-2.0587,-2.0609,-2.076,-2.0768,-2.0675,-2.0762,-2.0777,-2.0811,-2.089,-2.09,-2.0848,-2.0848,-2.0964,-2.0975,-2.0987,-2.1065,-2.103,-2.1035,-2.1039,-2.1228,-2.123,-2.1231,0,0,0,0,0,0,-2.0582,-2.06,-2.0755,-2.0689,-2.071,-2.0767,-2.0805,-2.0814,-2.0842,-2.0903,-2.0913,-2.0865,-2.0963,-2.0979,-2.1046,-2.107,-2.1038,-2.1044,-2.1226,-2.1228,-2.1231,-2.1221,0,0,0,0,0,0,-2.0576,-2.0598,-2.0622,-2.069,-2.0713,-2.0812,-2.0807,-2.0818,-2.0852,-2.0853,-2.0922,-2.0932,-2.0963,-2.1037,-2.1052,-2.1078,-2.1049,-2.1224,-2.1227,-2.123,-2.1219,-2.1222,-2.1225,0,0,0,0,0,-2.0569,-2.0614,-2.0623,-2.0641,-2.0743,-2.0813,-2.0826,-2.0861,-2.0854,-2.0878,-2.0918,-2.093,-2.1065,-2.1044,-2.1061,-2.1089,-2.1223,-2.1226,-2.123,-2.1218,-2.1222,-2.1225,0,0,0,0,0,0,-2.0548,-2.0624,-2.0634,-2.0702,-2.0751,-2.0818,-2.085,-2.0864,-2.0916,-2.0915,-2.0957,-2.0972,-2.1037,-2.107,-2.1045,-2.1153,-2.1144,-2.1151,-2.1129,-2.1133,-2.1136,-2.1127,-2.1054,0,0,0,0,0,-2.0551,-2.06,-2.0664,-2.0719,-2.0743,-2.0792,-2.0823,-2.0846,-2.0898,-2.0919,-2.0963,-2.1014,-2.1068,-2.1103,-2.1156,-2.1225,-2.124,-2.1253,-2.1255,-2.1258,-2.1263,-2.1303,-2.1309,-2.1242,-2.1242,-2.1242,0,0,-2.0558,-2.0606,-2.0634,-2.0716,-2.0756,-2.0807,-2.0809,-2.0863,-2.0901,-2.0927,-2.0994,-2.1028,-2.1088,-2.1156,-2.1189,-2.1186,-2.1285,-2.1262,-2.1263,-2.1267,-2.1307,-2.1313,-2.1318,-2.1245,-2.1244,-2.1244,0,0,-2.0597,-2.0638,-2.0688,-2.0729,-2.079,-2.0822,-2.0834,-2.09,-2.0924,-2.0991,-2.1012,-2.1059,-2.1151,-2.1193,-2.1226,-2.1282,-2.1295,-2.1298,-2.1313,-2.1352,-2.1357,-2.1362,-2.1382,-2.1389,-2.1304,-2.1304,-2.1304,0,-2.0599,-2.0676,-2.0712,-2.0765,-2.08,-2.0827,-2.0878,-2.0916,-2.0991,-2.1015,-2.1011,-2.1128,-2.1169,-2.1249,-2.1262,-2.1288,-2.1304,-2.129,-2.1353,-2.1358,-2.1363,-2.1383,-2.1391,-2.1304,-2.1304,-2.1304,-2.1304,0,-2.0674,-2.0728,-2.0761,-2.0833,-2.0872,-2.0924,-2.0969,-2.1004,-2.1024,-2.1058,-2.1127,-2.1178,-2.1242,-2.1263,-2.1283,-2.1345,-2.1342,-2.1345,-2.1336,-2.1369,-2.1388,-2.1396,-2.1304,-2.1304,-2.1304,-2.1304,0,0,-2.0702,-2.0794,-2.0806,-2.0839,-2.0909,-2.0951,-2.1005,-2.1068,-2.1098,-2.1149,-2.1196,-2.1274,-2.1277,-2.1315,-2.134,-2.1373,-2.1415,-2.1373,-2.1375,-2.1379,-2.1488,-2.1485,-2.1493,-2.1425,-2.1427,-2.1428,-2.1483,0,-2.075,-2.0846,-2.0881,-2.096,-2.101,-2.1036,-2.1083,-2.1132,-2.1165,-2.1213,-2.125,-2.1304,-2.1305,-2.1328,-2.1362,-2.1403,-2.1438,-2.1399,-2.1469,-2.1471,-2.1452,-2.1503,-2.15,-2.1549,-2.1491,-2.1492,-2.1493,0,-2.0818,-2.087,-2.0954,-2.1018,-2.1041,-2.1082,-2.1143,-2.1188,-2.1244,-2.1266,-2.1309,-2.1332,-2.139,-2.1378,-2.1459,-2.1433,-2.1463,-2.1488,-2.1491,-2.1498,-2.1483,-2.1511,-2.1566,-2.1573,-2.1505,-2.1504,-2.1504,0,-2.083,-2.0921,-2.0983,-2.1011,-2.1088,-2.1116,-2.115,-2.1205,-2.1241,-2.1294,-2.1318,-2.1378,-2.141,-2.1456,-2.1495,-2.1483,-2.1573,-2.1564,-2.1593,-2.1592,-2.161,-2.1608,-2.1669,-2.163,-2.163,-2.163,-2.163,0,-2.0879,-2.0929,-2.099,-2.1028,-2.1085,-2.1126,-2.1182,-2.1217,-2.1266,-2.1312,-2.1339,-2.1382,-2.1431,-2.1481,-2.1512,-2.1574,-2.1589,-2.1609,-2.1616,-2.1606,-2.1603,-2.1626,-2.1624,-2.1632,-2.1632,-2.1631,-2.1631,0,-2.0902,-2.0944,-2.1014,-2.1081,-2.1099,-2.1138,-2.1196,-2.1235,-2.127,-2.1328,-2.1344,-2.1399,-2.1459,-2.1502,-2.158,-2.1601,-2.1668,-2.1675,-2.1648,-2.1652,-2.1678,-2.1675,-2.1756,-2.1769,-2.1721,-2.1721,-2.1722,0,-2.093,-2.0969,-2.1041,-2.1073,-2.1107,-2.1159,-2.1195,-2.1237,-2.1275,-2.1342,-2.1373,-2.1434,-2.1486,-2.158,-2.1627,-2.1687,-2.1696,-2.1721,-2.1705,-2.1694,-2.1697,-2.1694,-2.1698,-2.1723,-2.1723,-2.1723,-2.1723,0,-2.0976,-2.0995,-2.1046,-2.1106,-2.1148,-2.1197,-2.1246,-2.1272,-2.1323,-2.1363,-2.1425,-2.1465,-2.1544,-2.1605,-2.1669,-2.1705,-2.1723,-2.1728,-2.1738,-2.1727,-2.171,-2.172,-2.1654,-2.1726,-2.1725,-2.1725,-2.1725,-2.1725,-2.1002,-2.1038,-2.1094,-2.1151,-2.1193,-2.1238,-2.1278,-2.1318,-2.1369,-2.1437,-2.1459,-2.1522,-2.1579,-2.1667,-2.1704,-2.1755,-2.1754,-2.1768,-2.1771,-2.1774,-2.1773,-2.1702,-2.1766,-2.1766,-2.1766,-2.1766,-2.1766,0,-2.1049,-2.1087,-2.1139,-2.1206,-2.1251,-2.1264,-2.132,-2.1357,-2.1412,-2.1463,-2.1513,-2.1584,-2.1644,-2.1696,-2.1758,-2.1789,-2.1799,-2.1804,-2.1802,-2.181,-2.1771,-2.1756,-2.1795,-2.1795,-2.1795,-2.1795,-2.1795,-2.1795,-2.1079,-2.1141,-2.1167,-2.1251,-2.1289,-2.135,-2.1381,-2.1424,-2.1464,-2.1542,-2.1592,-2.1625,-2.1677,-2.1744,-2.1799,-2.1813,-2.1835,-2.1838,-2.1854,-2.1816,-2.1813,-2.1809,-2.1796,-2.1842,-2.1842,-2.1889,-2.1889,-2.189]},{"header":{"parameterUnit":"m.s-1","parameterCategory":1,"la1":30.2991,"la2":30.254,"lo1":-89.0895,"lo2":-89.0444,"dy":0.0017,"dx":0.0017,"nx":28,"ny":28,"refTime":"2024-04-17T03:00:00:Z","depth":0,"parameterNumber":3,"parameterNumberName":"V-component_of_WINDS"},"data":[0,0,0,0,0,0,0,0,0,0,0,0,0,0,0,0,0,0,0,0,0,0,0,0,0,0,0,0,0,0,0,0,0,0,0,0,0,0,0,0,0,0,0,0,0,0,0,0,0,0,0,0,0,0,0,0,0,0,3.4709,3.4709,0,3.4724,3.4724,3.4724,3.4669,3.4668,3.4666,3.4664,3.4678,3.468,3.4682,0,0,0,0,0,0,0,0,0,0,0,0,0,3.463,3.4632,3.4709,3.4709,3.4709,3.4724,3.4724,3.4724,3.467,3.4668,3.4666,3.4664,3.4678,3.468,3.4682,0,0,0,0,0,0,0,0,0,0,0,0,0,3.4657,3.4633,3.4709,3.4683,3.4681,3.4724,3.4724,3.4724,3.467,3.4667,3.4665,3.4663,3.4677,3.468,3.4682,3.4749,0,0,3.4691,3.4692,0,0,0,0,0,0,0,0,3.4655,3.466,3.4687,3.4685,3.4683,3.4692,3.4702,3.4733,3.4671,3.4674,3.4664,3.4662,3.4685,3.4687,3.4695,3.475,3.4751,3.4691,3.4693,3.4694,3.4695,0,0,0,0,0,0,0,3.4654,3.4659,3.4715,3.4687,3.4685,3.4671,3.4672,3.4707,3.4693,3.4674,3.467,3.4672,3.4683,3.4692,3.4695,3.4751,3.4691,3.4694,3.4696,3.4697,3.4864,3.4867,0,0,0,0,0,0,3.4655,3.4658,3.4714,3.4715,3.4663,3.4674,3.4676,3.4692,3.4693,3.469,3.4675,3.467,3.4689,3.4692,3.4695,3.4776,3.4694,3.4697,3.4699,3.4861,3.4865,3.4867,0,0,0,0,0,0,3.4654,3.4661,3.4713,3.4685,3.4691,3.4678,3.4697,3.4693,3.4703,3.4693,3.469,3.4687,3.4687,3.4691,3.4737,3.4776,3.4698,3.4701,3.4858,3.4862,3.4866,3.4937,0,0,0,0,0,0,3.4652,3.4661,3.4686,3.4686,3.4693,3.4756,3.4699,3.4695,3.4708,3.4702,3.4704,3.4702,3.4685,3.4733,3.474,3.4778,3.4703,3.4855,3.486,3.4865,3.4931,3.4943,3.4953,0,0,0,0,0,3.4649,3.4704,3.4688,3.4695,3.4724,3.4758,3.4762,3.4742,3.4711,3.4737,3.4731,3.4702,3.477,3.4738,3.4745,3.4785,3.4852,3.4858,3.4864,3.4926,3.4941,3.4953,0,0,0,0,0,0,3.4708,3.4704,3.4685,3.4742,3.4751,3.4749,3.478,3.4757,3.4774,3.4768,3.4742,3.4743,3.4794,3.4793,3.4759,3.4851,3.4806,3.4813,3.485,3.4864,3.4874,3.4875,3.4706,0,0,0,0,0,3.4728,3.4756,3.475,3.4801,3.4807,3.4793,3.4807,3.4791,3.4799,3.4802,3.4799,3.4807,3.4831,3.4847,3.4867,3.493,3.4931,3.4961,3.4972,3.4981,3.4989,3.5024,3.5038,3.4888,3.4888,3.4887,0,0,3.4769,3.477,3.4789,3.4813,3.4818,3.4848,3.4796,3.4829,3.4852,3.4807,3.4851,3.4849,3.4856,3.4912,3.4936,3.4913,3.503,3.4989,3.4996,3.4999,3.5032,3.5046,3.5059,3.4892,3.4891,3.489,0,0,3.4859,3.4862,3.4906,3.4913,3.4921,3.4912,3.4923,3.4924,3.4922,3.4966,3.4933,3.4958,3.4998,3.5006,3.5015,3.511,3.5084,3.5117,3.5175,3.521,3.5222,3.5232,3.5269,3.5282,3.5124,3.5124,3.5124,0,3.4909,3.4954,3.4932,3.4968,3.4981,3.4942,3.4987,3.4993,3.5008,3.5018,3.4991,3.5043,3.5044,3.5102,3.5126,3.5133,3.5146,3.5118,3.5222,3.5232,3.5242,3.5276,3.529,3.5129,3.5128,3.5128,3.5127,0,3.5016,3.5047,3.5081,3.5099,3.5114,3.5155,3.5139,3.5157,3.514,3.5134,3.518,3.5181,3.5203,3.5214,3.5197,3.527,3.5256,3.5226,3.5181,3.5261,3.5293,3.5306,3.5134,3.5133,3.5132,3.5131,0,0,3.5145,3.515,3.5164,3.5172,3.5179,3.5203,3.5241,3.5263,3.5281,3.5292,3.5325,3.536,3.5333,3.5344,3.5327,3.5357,3.5436,3.5324,3.5324,3.5347,3.5519,3.5544,3.556,3.5418,3.542,3.5422,3.552,0,3.5236,3.5305,3.5286,3.5354,3.5384,3.5348,3.5382,3.539,3.5385,3.5409,3.5403,3.543,3.5391,3.5397,3.5425,3.542,3.547,3.5412,3.545,3.5451,3.5452,3.5576,3.5602,3.5694,3.5532,3.5534,3.5535,0,3.5352,3.537,3.5442,3.5446,3.5458,3.5489,3.5509,3.5532,3.5541,3.5535,3.5547,3.5525,3.5563,3.5516,3.557,3.5531,3.5544,3.5544,3.5547,3.5552,3.55,3.5587,3.5722,3.5738,3.5554,3.5553,3.5551,0,3.5443,3.5485,3.5534,3.5541,3.5547,3.557,3.5573,3.5579,3.5594,3.5611,3.5621,3.5641,3.5653,3.567,3.5654,3.562,3.5711,3.5661,3.5708,3.5709,3.5731,3.5731,3.5874,3.5735,3.5735,3.5735,3.5735,0,3.5549,3.5595,3.5575,3.5606,3.5656,3.5634,3.5685,3.5684,3.569,3.5719,3.5688,3.5716,3.5692,3.5718,3.5705,3.5753,3.5758,3.5755,3.5752,3.576,3.5761,3.5771,3.5765,3.5739,3.5738,3.5737,3.5736,0,3.566,3.5648,3.57,3.5701,3.5703,3.574,3.5741,3.577,3.5762,3.58,3.5808,3.5796,3.5826,3.5811,3.584,3.5832,3.5895,3.5881,3.5893,3.5891,3.594,3.5937,3.6097,3.6118,3.5963,3.5965,3.5966,0,3.573,3.5765,3.5771,3.5789,3.5795,3.5824,3.584,3.582,3.5837,3.5851,3.5878,3.5905,3.5926,3.5974,3.5969,3.5992,3.598,3.6035,3.5984,3.5992,3.5985,3.5984,3.5989,3.6046,3.6048,3.6049,3.605,0,3.5857,3.5849,3.5874,3.5898,3.5918,3.5935,3.5949,3.5965,3.5945,3.5967,3.5997,3.6014,3.6045,3.6073,3.6094,3.6096,3.6071,3.6066,3.6079,3.6089,3.6096,3.6096,3.5925,3.6063,3.6062,3.6061,3.606,3.606,3.5951,3.5982,3.5991,3.602,3.6029,3.6043,3.6071,3.6068,3.6093,3.6119,3.6104,3.6141,3.6149,3.6174,3.618,3.6209,3.6187,3.6205,3.621,3.6215,3.6224,3.6089,3.6212,3.6211,3.6211,3.6211,3.621,0,3.6079,3.6083,3.611,3.6132,3.6155,3.6129,3.6144,3.6165,3.6198,3.6208,3.623,3.6266,3.6293,3.629,3.6315,3.6338,3.6328,3.6346,3.6345,3.6347,3.624,3.6228,3.6354,3.6354,3.6354,3.6354,3.6354,3.6354,3.6148,3.6199,3.6193,3.6249,3.6252,3.6289,3.63,3.6314,3.6322,3.6365,3.6388,3.6385,3.6391,3.6416,3.644,3.6438,3.645,3.6473,3.6468,3.6368,3.6354,3.6341,3.633,3.6475,3.6475,3.6573,3.6574,3.6575]}]]